Newport Airport, OR

11:38 PM PDT on May 26, 2017 (GMT -0700)
Newport Municipal

Weather History for KONP - October, 2010

Change the Weather History Date:

Saturday, October 16, 2010

  Actual Average Record
Temperature  
Mean Temperature 46 °F -  
Max Temperature 55 °F 57 °F 64 °F (1999)
Min Temperature 37 °F 46 °F 33 °F (2002)
Degree Days  
Heating Degree Days 19    
Moisture  
Dew Point 43 °F    
Average Humidity 84    
Maximum Humidity 100    
Minimum Humidity 67    
Precipitation  
Precipitation 0.00 in - - ()
Sea Level Pressure  
Sea Level Pressure 30.16 in    
Wind  
Wind Speed 4 mph (NE)    
Max Wind Speed 14 mph    
Max Gust Speed 22 mph    
Visibility 9 miles    
Events      
Averages and records for this station are not official NWS values.
T = Trace of Precipitation, MM = Missing Value Source: NWS Daily Summary

Daily Weather History Graph

Daily Weather History Graph

Search for Another Location

Airport or City:

Trip Planner

Search our weather history database for the weather conditions in past years. The results will help you decide how hot, cold, wet, or windy it might be!

Date:

Astronomy

Oct. 16, 2010 Rise Set
Actual Time 7:32 AM PDT 6:29 PM PDT
Civil Twilight 7:03 AM PDT 6:59 PM PDT
Nautical Twilight 6:29 AM PDT 7:33 PM PDT
Astronomical Twilight 5:55 AM PDT 8:06 PM PDT
Moon 3:38 PM PDT (10/16) 1:16 AM PDT (10/16)
Length of Visible Light 11h 55m
Length of Day
10h 57m
Waxing Gibbous, 68% of the Moon is Illuminated
Oct 16
Waxing Gibbous
Oct 22
Full
Oct 30
Last Quarter
Nov 5
New
Nov 13
First Quarter

Hourly Weather History & Observations

Time (PDT) Temp. Windchill Dew Point Humidity Pressure Visibility Wind Dir Wind Speed Gust Speed Precip Events Conditions
12:12 AM 42.8 °F - 42.8 °F 100% 30.15 in 10.0 mi Calm Calm - N/A   Clear
12:51 AM 42.8 °F 41.1 °F 42.8 °F 100% 30.14 in 10.0 mi East 3.5 mph - N/A   Clear
1:11 AM 42.8 °F 38.6 °F 42.8 °F 100% 30.15 in 10.0 mi East 6.9 mph - N/A   Clear
1:30 AM 44.6 °F 41.4 °F 42.8 °F 93% 30.14 in 10.0 mi East 5.8 mph - N/A   Clear
1:51 AM 44.6 °F 42.2 °F 42.8 °F 93% 30.15 in 10.0 mi East 4.6 mph - N/A   Clear
2:11 AM 44.6 °F 43.1 °F 42.8 °F 93% 30.14 in 10.0 mi East 3.5 mph - N/A   Clear
2:31 AM 44.6 °F 43.1 °F 42.8 °F 93% 30.15 in 10.0 mi East 3.5 mph - N/A   Clear
2:52 AM 42.8 °F - 42.8 °F 100% 30.15 in 7.0 mi Calm Calm - N/A   Clear
3:11 AM 42.8 °F - 41.0 °F 93% 30.15 in 7.0 mi Calm Calm - N/A   Clear
3:51 AM 42.8 °F 40.1 °F 39.2 °F 87% 30.14 in 10.0 mi East 4.6 mph - N/A   Clear
4:11 AM 41.0 °F 38.0 °F 39.2 °F 93% 30.14 in 10.0 mi East 4.6 mph - N/A   Clear
4:31 AM 39.2 °F 37.0 °F 39.2 °F 100% 30.13 in 10.0 mi NE 3.5 mph - N/A   Clear
4:51 AM 41.0 °F 37.1 °F 39.2 °F 93% 30.13 in 10.0 mi East 5.8 mph - N/A   Clear
5:11 AM 42.8 °F 38.6 °F 39.2 °F 87% 30.12 in 10.0 mi East 6.9 mph - N/A   Clear
5:31 AM 41.0 °F 35.2 °F 39.2 °F 93% 30.12 in 10.0 mi East 9.2 mph - N/A   Clear
5:51 AM 41.0 °F - 39.2 °F 93% 30.13 in 10.0 mi Calm Calm - N/A   Clear
6:11 AM 41.0 °F - 39.2 °F 93% 30.14 in 10.0 mi Calm Calm - N/A   Clear
6:31 AM 39.2 °F - 37.4 °F 93% 30.14 in 7.0 mi Calm Calm - N/A   Clear
6:51 AM 39.2 °F - 37.4 °F 93% 30.15 in 7.0 mi Calm Calm - N/A   Clear
7:10 AM 39.2 °F 35.0 °F 37.4 °F 93% 30.15 in 7.0 mi East 5.8 mph - N/A   Clear
7:31 AM 37.4 °F 32.8 °F 37.4 °F 100% 30.15 in 7.0 mi East 5.8 mph - N/A   Clear
7:51 AM 39.2 °F 35.0 °F 37.4 °F 93% 30.15 in 7.0 mi East 5.8 mph - N/A   Clear
8:11 AM 39.2 °F 35.9 °F 37.4 °F 93% 30.16 in 7.0 mi East 4.6 mph - N/A   Clear
8:31 AM 39.2 °F - 39.2 °F 100% 30.16 in 7.0 mi Calm Calm - N/A   Clear
8:51 AM 42.8 °F 38.6 °F 41.0 °F 93% 30.17 in 10.0 mi East 6.9 mph - N/A   Clear
9:12 AM 44.6 °F 43.1 °F 41.0 °F 87% 30.18 in 10.0 mi East 3.5 mph - N/A   Clear
9:31 AM 44.6 °F 41.4 °F 41.0 °F 87% 30.18 in 10.0 mi ESE 5.8 mph - N/A   Clear
9:51 AM 46.4 °F - 42.8 °F 87% 30.18 in 10.0 mi Calm Calm - N/A   Clear
10:11 AM 48.2 °F - 44.6 °F 87% 30.18 in 10.0 mi East 3.5 mph - N/A   Clear
10:31 AM 50.0 °F - 42.8 °F 76% 30.18 in 10.0 mi Calm Calm - N/A   Clear
10:51 AM 51.8 °F - 42.8 °F 71% 30.19 in 10.0 mi Calm Calm - N/A   Clear
11:11 AM 53.6 °F - 42.8 °F 67% 30.19 in 10.0 mi North 3.5 mph - N/A   Clear
11:31 AM 53.6 °F - 44.6 °F 72% 30.19 in 10.0 mi North 4.6 mph - N/A   Clear
11:51 AM 53.6 °F - 42.8 °F 67% 30.19 in 7.0 mi NNW 6.9 mph - N/A   Clear
12:11 PM 53.6 °F - 44.6 °F 72% 30.19 in 7.0 mi NW 6.9 mph - N/A   Clear
12:31 PM 53.6 °F - 44.6 °F 72% 30.18 in 10.0 mi NNW 4.6 mph - N/A   Clear
12:51 PM 53.6 °F - 42.8 °F 67% 30.18 in 10.0 mi NW 5.8 mph - N/A   Clear
1:11 PM 55.4 °F - 44.6 °F 67% 30.18 in 10.0 mi NNW 8.1 mph - N/A   Clear
1:31 PM 55.4 °F - 44.6 °F 67% - 10.0 mi NNW 10.4 mph - N/A   Clear
1:51 PM 55.4 °F - 46.4 °F 72% - 10.0 mi NNW 10.4 mph - N/A   Clear
2:11 PM 55.4 °F - 46.4 °F 72% 30.17 in 10.0 mi NNW 10.4 mph - N/A   Clear
2:31 PM 55.4 °F - 44.6 °F 67% 30.16 in 10.0 mi NNW 11.5 mph - N/A   Clear
2:51 PM 55.4 °F - 46.4 °F 72% 30.16 in 10.0 mi NNW 13.8 mph 17.3 mph N/A   Clear
3:11 PM 55.4 °F - 46.4 °F 72% 30.16 in 10.0 mi NNW 12.7 mph - N/A   Clear
3:31 PM 55.4 °F - 46.4 °F 72% 30.16 in 10.0 mi NNW 13.8 mph 18.4 mph N/A   Clear
3:52 PM 55.4 °F - 48.2 °F 77% 30.17 in 10.0 mi NNW 12.7 mph 18.4 mph N/A   Clear
4:31 PM 55.4 °F - 46.4 °F 72% 30.16 in 10.0 mi North 13.8 mph 21.9 mph N/A   Clear
4:51 PM 53.6 °F - 46.4 °F 77% 30.17 in 10.0 mi North 9.2 mph - N/A   Clear
5:11 PM 53.6 °F - 46.4 °F 77% 30.17 in 10.0 mi North 11.5 mph 16.1 mph N/A   Clear
5:31 PM 53.6 °F - 46.4 °F 77% 30.17 in 10.0 mi North 11.5 mph 19.6 mph N/A   Clear
5:52 PM 53.6 °F - 46.4 °F 77% 30.16 in 10.0 mi North 8.1 mph - N/A   Clear
6:11 PM 53.6 °F - 46.4 °F 77% 30.16 in 10.0 mi North 6.9 mph - N/A   Clear
6:31 PM 51.8 °F - 46.4 °F 82% 30.16 in 10.0 mi Calm Calm - N/A   Clear
6:51 PM 51.8 °F - 46.4 °F 82% 30.16 in 10.0 mi Calm Calm - N/A   Clear
7:11 PM 50.0 °F - 44.6 °F 82% 30.16 in 10.0 mi North 3.5 mph - N/A   Clear
7:31 PM 50.0 °F - 44.6 °F 82% 30.17 in 10.0 mi NNE 3.5 mph - N/A   Clear
7:51 PM 48.2 °F - 44.6 °F 87% 30.16 in 10.0 mi NNE 3.5 mph - N/A   Clear
8:31 PM 46.4 °F 45.2 °F 42.8 °F 87% 30.17 in 10.0 mi NE 3.5 mph - N/A   Clear
8:51 PM 44.6 °F 43.1 °F 42.8 °F 93% 30.17 in 10.0 mi ESE 3.5 mph - N/A   Clear
9:11 PM 42.8 °F - 42.8 °F 100% 30.17 in 10.0 mi Calm Calm - N/A   Clear
9:31 PM 42.8 °F - 41.0 °F 93% 30.16 in 10.0 mi Calm Calm - N/A   Clear
9:51 PM 44.6 °F - 42.8 °F 93% 30.17 in 10.0 mi Calm Calm - N/A   Clear
10:11 PM 42.8 °F - 41.0 °F 93% 30.17 in 10.0 mi Calm Calm - N/A   Clear
10:31 PM 42.8 °F 40.1 °F 41.0 °F 93% 30.17 in 10.0 mi ESE 4.6 mph - N/A   Clear
10:51 PM 42.8 °F 41.1 °F 41.0 °F 93% 30.18 in 10.0 mi East 3.5 mph - N/A   Clear
11:11 PM 42.8 °F 41.1 °F 42.8 °F 100% 30.18 in 10.0 mi East 3.5 mph - N/A   Clear
11:31 PM 42.8 °F 41.1 °F 41.0 °F 93% 30.18 in 10.0 mi East 3.5 mph - N/A   Clear
11:51 PM 42.8 °F - 41.0 °F 93% 30.18 in 10.0 mi Calm Calm - N/A   Clear